Data supplied by UK-AIR on 1/4/2020
All Data GMT hour ending 
Status: R =Ratified P=Provisional,P*=As supplied
,,Nottingham Western Boulevard,,,,,,,,,,,,,,,,,,,,,,,
Date,time,"PM<sub>10</sub> particulate matter (Hourly measured)",status,unit,"Nitric oxide",status,unit,"Nitrogen dioxide",status,unit,"Nitrogen oxides as nitrogen dioxide",status,unit
 
01-01-2019,01:00,28.986,R,ugm-3 (Ref.eq),4.81131,R,ugm-3,9.54292,R,ugm-3,16.92017,R,ugm-3
01-01-2019,02:00,17.392,R,ugm-3 (Ref.eq),7.99561,R,ugm-3,15.79951,R,ugm-3,28.05927,R,ugm-3
01-01-2019,03:00,13.527,R,ugm-3 (Ref.eq),2.85890,R,ugm-3,8.46517,R,ugm-3,12.84875,R,ugm-3
01-01-2019,04:00,12.561,R,ugm-3 (Ref.eq),2.44052,R,ugm-3,6.51577,R,ugm-3,10.25785,R,ugm-3
01-01-2019,05:00,13.527,R,ugm-3 (Ref.eq),2.47539,R,ugm-3,6.30368,R,ugm-3,10.09922,R,ugm-3
01-01-2019,06:00,12.561,R,ugm-3 (Ref.eq),2.09188,R,ugm-3,7.05035,R,ugm-3,10.25785,R,ugm-3
01-01-2019,07:00,14.493,R,ugm-3 (Ref.eq),5.12510,R,ugm-3,14.40222,R,ugm-3,22.26059,R,ugm-3
01-01-2019,08:00,15.459,R,ugm-3 (Ref.eq),4.74158,R,ugm-3,13.40400,R,ugm-3,20.67433,R,ugm-3
01-01-2019,09:00,9.662,R,ugm-3 (Ref.eq),3.69565,R,ugm-3,9.82595,R,ugm-3,15.49253,R,ugm-3
01-01-2019,10:00,8.696,R,ugm-3 (Ref.eq),4.35807,R,ugm-3,12.30002,R,ugm-3,18.98231,R,ugm-3
01-01-2019,11:00,7.730,R,ugm-3 (Ref.eq),6.20590,R,ugm-3,12.16339,R,ugm-3,21.67896,R,ugm-3
01-01-2019,12:00,9.662,R,ugm-3 (Ref.eq),8.89047,R,ugm-3,13.54615,R,ugm-3,27.17801,R,ugm-3
01-01-2019,13:00,11.594,R,ugm-3 (Ref.eq),11.19153,R,ugm-3,14.24795,R,ugm-3,31.40806,R,ugm-3
01-01-2019,14:00,16.425,R,ugm-3 (Ref.eq),14.08529,R,ugm-3,27.89433,R,ugm-3,49.49148,R,ugm-3
01-01-2019,15:00,20.290,R,ugm-3 (Ref.eq),15.65420,R,ugm-3,27.02210,R,ugm-3,51.02487,R,ugm-3
01-01-2019,16:00,26.087,R,ugm-3 (Ref.eq),21.09308,R,ugm-3,35.54989,R,ugm-3,67.89216,R,ugm-3
01-01-2019,17:00,29.952,R,ugm-3 (Ref.eq),28.62383,R,ugm-3,51.18092,R,ugm-3,95.07017,R,ugm-3
01-01-2019,18:00,30.918,R,ugm-3 (Ref.eq),48.14800,R,ugm-3,67.19310,R,ugm-3,141.01900,R,ugm-3
01-01-2019,19:00,28.020,R,ugm-3 (Ref.eq),31.02948,R,ugm-3,58.70190,R,ugm-3,106.27978,R,ugm-3
01-01-2019,20:00,24.155,R,ugm-3 (Ref.eq),14.53853,R,ugm-3,34.02032,R,ugm-3,56.31242,R,ugm-3
01-01-2019,21:00,24.155,R,ugm-3 (Ref.eq),15.51474,R,ugm-3,37.12365,R,ugm-3,60.91259,R,ugm-3
01-01-2019,22:00,14.493,R,ugm-3 (Ref.eq),10.73829,R,ugm-3,28.16178,R,ugm-3,44.62693,R,ugm-3
01-01-2019,23:00,19.324,R,ugm-3 (Ref.eq),10.66856,R,ugm-3,31.91711,R,ugm-3,48.27534,R,ugm-3
01-01-2019,24:00,16.425,R,ugm-3 (Ref.eq),4.18375,R,ugm-3,24.19993,R,ugm-3,30.61492,R,ugm-3
02-01-2019,01:00,15.459,R,ugm-3 (Ref.eq),5.02559,R,ugm-3,19.58874,R,ugm-3,27.29454,R,ugm-3
02-01-2019,02:00,15.459,R,ugm-3 (Ref.eq),2.93159,R,ugm-3,13.27814,R,ugm-3,17.77319,R,ugm-3
02-01-2019,03:00,15.459,R,ugm-3 (Ref.eq),1.84970,R,ugm-3,9.75318,R,ugm-3,12.58934,R,ugm-3
02-01-2019,04:00,17.392,R,ugm-3 (Ref.eq),5.06049,R,ugm-3,11.65367,R,ugm-3,19.41298,R,ugm-3
02-01-2019,05:00,19.324,R,ugm-3 (Ref.eq),8.09678,R,ugm-3,15.88468,R,ugm-3,28.29957,R,ugm-3
02-01-2019,06:00,21.256,R,ugm-3 (Ref.eq),16.71706,R,ugm-3,34.82811,R,ugm-3,60.46057,R,ugm-3
02-01-2019,07:00,23.189,R,ugm-3 (Ref.eq),31.72402,R,ugm-3,51.11977,R,ugm-3,99.76259,R,ugm-3
02-01-2019,08:00,28.020,R,ugm-3 (Ref.eq),38.42480,R,ugm-3,56.07954,R,ugm-3,114.99675,R,ugm-3
02-01-2019,09:00,28.020,R,ugm-3 (Ref.eq),39.01810,R,ugm-3,60.08919,R,ugm-3,119.91612,R,ugm-3
02-01-2019,10:00,28.020,R,ugm-3 (Ref.eq),40.48390,R,ugm-3,60.75097,R,ugm-3,122.82542,R,ugm-3
02-01-2019,11:00,32.851,R,ugm-3 (Ref.eq),55.73516,R,ugm-3,66.98801,R,ugm-3,152.44740,R,ugm-3
02-01-2019,12:00,30.918,R,ugm-3 (Ref.eq),39.08790,R,ugm-3,50.40792,R,ugm-3,110.34187,R,ugm-3
02-01-2019,13:00,26.087,R,ugm-3 (Ref.eq),34.41131,R,ugm-3,51.01944,R,ugm-3,103.78272,R,ugm-3
02-01-2019,14:00,30.918,R,ugm-3 (Ref.eq),43.03159,R,ugm-3,54.35843,R,ugm-3,120.33929,R,ugm-3
02-01-2019,15:00,30.918,R,ugm-3 (Ref.eq),43.45039,R,ugm-3,60.69861,R,ugm-3,127.32161,R,ugm-3
02-01-2019,16:00,25.121,R,ugm-3 (Ref.eq),50.81427,R,ugm-3,68.07990,R,ugm-3,145.99403,R,ugm-3
02-01-2019,17:00,25.121,R,ugm-3 (Ref.eq),47.88268,R,ugm-3,68.29034,R,ugm-3,141.70943,R,ugm-3
02-01-2019,18:00,33.817,R,ugm-3 (Ref.eq),66.72863,R,ugm-3,81.55204,R,ugm-3,183.86785,R,ugm-3
02-01-2019,19:00,33.817,R,ugm-3 (Ref.eq),40.72820,R,ugm-3,67.67609,R,ugm-3,130.12512,R,ugm-3
02-01-2019,20:00,30.918,R,ugm-3 (Ref.eq),38.49460,R,ugm-3,71.78854,R,ugm-3,130.81277,R,ugm-3
02-01-2019,21:00,30.918,R,ugm-3 (Ref.eq),29.07163,R,ugm-3,65.44862,R,ugm-3,110.02449,R,ugm-3
02-01-2019,22:00,46.378,R,ugm-3 (Ref.eq),37.76171,R,ugm-3,73.97023,R,ugm-3,131.87070,R,ugm-3
02-01-2019,23:00,34.783,R,ugm-3 (Ref.eq),28.89713,R,ugm-3,65.08142,R,ugm-3,109.38973,R,ugm-3
02-01-2019,24:00,31.885,R,ugm-3 (Ref.eq),16.54256,R,ugm-3,51.54645,R,ugm-3,76.91135,R,ugm-3
03-01-2019,01:00,27.054,R,ugm-3 (Ref.eq),10.99296,R,ugm-3,39.02500,R,ugm-3,55.88063,R,ugm-3
03-01-2019,02:00,27.054,R,ugm-3 (Ref.eq),6.05544,R,ugm-3,21.19547,R,ugm-3,30.48034,R,ugm-3
03-01-2019,03:00,18.358,R,ugm-3 (Ref.eq),5.90406,R,ugm-3,26.66640,R,ugm-3,35.71915,R,ugm-3
03-01-2019,04:00,18.358,R,ugm-3 (Ref.eq),14.74267,R,ugm-3,26.23752,R,ugm-3,48.84264,R,ugm-3
03-01-2019,05:00,21.256,R,ugm-3 (Ref.eq),23.75596,R,ugm-3,36.60053,R,ugm-3,73.02583,R,ugm-3
03-01-2019,06:00,21.256,R,ugm-3 (Ref.eq),30.21898,R,ugm-3,44.52382,R,ugm-3,90.85895,R,ugm-3
03-01-2019,07:00,30.918,R,ugm-3 (Ref.eq),63.37252,R,ugm-3,69.46662,R,ugm-3,166.63647,R,ugm-3
03-01-2019,08:00,30.918,R,ugm-3 (Ref.eq),90.69188,R,ugm-3,79.27770,R,ugm-3,218.33664,R,ugm-3
03-01-2019,09:00,51.209,R,ugm-3 (Ref.eq),75.52998,R,ugm-3,79.55952,R,ugm-3,195.37054,R,ugm-3
03-01-2019,10:00,51.209,R,ugm-3 (Ref.eq),74.16751,R,ugm-3,74.76937,R,ugm-3,188.49130,R,ugm-3
03-01-2019,11:00,54.107,R,ugm-3 (Ref.eq),69.27658,R,ugm-3,72.84942,R,ugm-3,179.07203,R,ugm-3
03-01-2019,12:00,46.378,R,ugm-3 (Ref.eq),63.72187,R,ugm-3,70.46556,R,ugm-3,168.17107,R,ugm-3
03-01-2019,13:00,42.513,R,ugm-3 (Ref.eq),59.98380,R,ugm-3,68.94752,R,ugm-3,160.92141,R,ugm-3
03-01-2019,14:00,42.513,R,ugm-3 (Ref.eq),57.64314,R,ugm-3,63.17013,R,ugm-3,151.55505,R,ugm-3
03-01-2019,15:00,49.276,R,ugm-3 (Ref.eq),49.32856,R,ugm-3,53.58790,R,ugm-3,129.22396,R,ugm-3
03-01-2019,16:00,50.242,R,ugm-3 (Ref.eq),52.43779,R,ugm-3,58.71600,R,ugm-3,139.11949,R,ugm-3
03-01-2019,17:00,51.209,R,ugm-3 (Ref.eq),75.66973,R,ugm-3,72.51893,R,ugm-3,188.54422,R,ugm-3
03-01-2019,18:00,71.499,R,ugm-3 (Ref.eq),97.25970,R,ugm-3,70.63594,R,ugm-3,219.76540,R,ugm-3
03-01-2019,19:00,73.431,R,ugm-3 (Ref.eq),80.21131,R,ugm-3,80.74252,R,ugm-3,203.73147,R,ugm-3
03-01-2019,20:00,66.668,R,ugm-3 (Ref.eq),60.05367,R,ugm-3,74.44962,R,ugm-3,166.53063,R,ugm-3
03-01-2019,21:00,66.668,R,ugm-3 (Ref.eq),49.53817,R,ugm-3,69.88252,R,ugm-3,145.83998,R,ugm-3
03-01-2019,22:00,73.431,R,ugm-3 (Ref.eq),47.79141,R,ugm-3,70.28541,R,ugm-3,143.56454,R,ugm-3
03-01-2019,23:00,73.431,R,ugm-3 (Ref.eq),32.17535,R,ugm-3,62.10891,R,ugm-3,111.44376,R,ugm-3
03-01-2019,24:00,57.006,R,ugm-3 (Ref.eq),17.99165,R,ugm-3,48.66697,R,ugm-3,76.25378,R,ugm-3
04-01-2019,01:00,57.006,R,ugm-3 (Ref.eq),4.96582,R,ugm-3,26.10745,R,ugm-3,33.72160,R,ugm-3
04-01-2019,02:00,40.580,R,ugm-3 (Ref.eq),2.51788,R,ugm-3,13.07951,R,ugm-3,16.94021,R,ugm-3
04-01-2019,03:00,40.580,R,ugm-3 (Ref.eq),3.77682,R,ugm-3,17.34292,R,ugm-3,23.13397,R,ugm-3
04-01-2019,04:00,34.783,R,ugm-3 (Ref.eq),9.86170,R,ugm-3,26.22363,R,ugm-3,41.34469,R,ugm-3
04-01-2019,05:00,34.783,R,ugm-3 (Ref.eq),11.26052,R,ugm-3,29.05498,R,ugm-3,46.32087,R,ugm-3
04-01-2019,06:00,40.580,R,ugm-3 (Ref.eq),21.92654,R,ugm-3,38.42858,R,ugm-3,72.04881,R,ugm-3
04-01-2019,07:00,52.175,R,ugm-3 (Ref.eq),67.63307,R,ugm-3,59.71745,R,ugm-3,163.42004,R,ugm-3
04-01-2019,08:00,52.175,R,ugm-3 (Ref.eq),104.00245,R,ugm-3,74.94189,R,ugm-3,234.41009,R,ugm-3
04-01-2019,09:00,59.904,R,ugm-3 (Ref.eq),88.37061,R,ugm-3,72.01780,R,ugm-3,207.51751,R,ugm-3
04-01-2019,10:00,84.059,R,ugm-3 (Ref.eq),76.51559,R,ugm-3,55.62664,R,ugm-3,172.94891,R,ugm-3
04-01-2019,11:00,64.735,R,ugm-3 (Ref.eq),77.77453,R,ugm-3,61.68995,R,ugm-3,180.94257,R,ugm-3
04-01-2019,12:00,65.702,R,ugm-3 (Ref.eq),63.96116,R,ugm-3,60.31851,R,ugm-3,158.39092,R,ugm-3
04-01-2019,13:00,65.702,R,ugm-3 (Ref.eq),83.89438,R,ugm-3,73.48157,R,ugm-3,202.11782,R,ugm-3
04-01-2019,14:00,75.364,R,ugm-3 (Ref.eq),91.16826,R,ugm-3,75.45711,R,ugm-3,215.24648,R,ugm-3
04-01-2019,15:00,80.195,R,ugm-3 (Ref.eq),93.82602,R,ugm-3,68.04683,R,ugm-3,211.91138,R,ugm-3
04-01-2019,16:00,59.904,R,ugm-3 (Ref.eq),81.06176,R,ugm-3,70.14882,R,ugm-3,194.44179,R,ugm-3
04-01-2019,17:00,59.904,R,ugm-3 (Ref.eq),92.18240,R,ugm-3,75.59612,R,ugm-3,216.94050,R,ugm-3
04-01-2019,18:00,55.073,R,ugm-3 (Ref.eq),84.52385,R,ugm-3,73.25753,R,ugm-3,202.85896,R,ugm-3
04-01-2019,19:00,59.904,R,ugm-3 (Ref.eq),62.10772,R,ugm-3,65.54263,R,ugm-3,160.77313,R,ugm-3
04-01-2019,20:00,41.547,R,ugm-3 (Ref.eq),50.07785,R,ugm-3,60.69540,R,ugm-3,137.48035,R,ugm-3
04-01-2019,21:00,36.716,R,ugm-3 (Ref.eq),27.90651,R,ugm-3,51.59932,R,ugm-3,94.38871,R,ugm-3
04-01-2019,22:00,42.513,R,ugm-3 (Ref.eq),23.04560,R,ugm-3,46.29452,R,ugm-3,81.63061,R,ugm-3
04-01-2019,23:00,38.648,R,ugm-3 (Ref.eq),16.71593,R,ugm-3,38.42442,R,ugm-3,64.05515,R,ugm-3
04-01-2019,24:00,35.749,R,ugm-3 (Ref.eq),13.21887,R,ugm-3,30.34021,R,ugm-3,50.60886,R,ugm-3
05-01-2019,01:00,35.749,R,ugm-3 (Ref.eq),9.90667,R,ugm-3,32.52607,R,ugm-3,47.71607,R,ugm-3
05-01-2019,02:00,34.783,R,ugm-3 (Ref.eq),8.49476,R,ugm-3,31.17801,R,ugm-3,44.20313,R,ugm-3
05-01-2019,03:00,31.885,R,ugm-3 (Ref.eq),14.21239,R,ugm-3,34.23861,R,ugm-3,56.03064,R,ugm-3
05-01-2019,04:00,28.986,R,ugm-3 (Ref.eq),9.38158,R,ugm-3,26.23468,R,ugm-3,40.61957,R,ugm-3
05-01-2019,05:00,28.986,R,ugm-3 (Ref.eq),6.37107,R,ugm-3,10.67334,R,ugm-3,20.44218,R,ugm-3
05-01-2019,06:00,18.358,R,ugm-3 (Ref.eq),7.14120,R,ugm-3,17.01267,R,ugm-3,27.96236,R,ugm-3
05-01-2019,07:00,18.358,R,ugm-3 (Ref.eq),14.00235,R,ugm-3,28.62925,R,ugm-3,50.09923,R,ugm-3
05-01-2019,08:00,21.256,R,ugm-3 (Ref.eq),18.02803,R,ugm-3,32.67773,R,ugm-3,60.32032,R,ugm-3
05-01-2019,09:00,35.749,R,ugm-3 (Ref.eq),13.89734,R,ugm-3,28.10181,R,ugm-3,49.41076,R,ugm-3
05-01-2019,10:00,57.972,R,ugm-3 (Ref.eq),27.09456,R,ugm-3,44.77879,R,ugm-3,86.32320,R,ugm-3
05-01-2019,11:00,60.871,R,ugm-3 (Ref.eq),50.47849,R,ugm-3,68.07915,R,ugm-3,145.47842,R,ugm-3
05-01-2019,12:00,54.107,R,ugm-3 (Ref.eq),51.98374,R,ugm-3,67.09510,R,ugm-3,146.80240,R,ugm-3
05-01-2019,13:00,49.276,R,ugm-3 (Ref.eq),60.45517,R,ugm-3,69.19909,R,ugm-3,161.89572,R,ugm-3
05-01-2019,14:00,49.276,R,ugm-3 (Ref.eq),62.94058,R,ugm-3,68.77754,R,ugm-3,165.28509,R,ugm-3
05-01-2019,15:00,47.344,R,ugm-3 (Ref.eq),63.01060,R,ugm-3,63.16246,R,ugm-3,159.77736,R,ugm-3
05-01-2019,16:00,41.547,R,ugm-3 (Ref.eq),39.62666,R,ugm-3,57.81520,R,ugm-3,118.57524,R,ugm-3
05-01-2019,17:00,38.648,R,ugm-3 (Ref.eq),43.26728,R,ugm-3,60.97125,R,ugm-3,127.31348,R,ugm-3
05-01-2019,18:00,36.716,R,ugm-3 (Ref.eq),37.66634,R,ugm-3,55.84285,R,ugm-3,113.59709,R,ugm-3
05-01-2019,19:00,36.716,R,ugm-3 (Ref.eq),45.36763,R,ugm-3,64.47654,R,ugm-3,134.03927,R,ugm-3
05-01-2019,20:00,32.851,R,ugm-3 (Ref.eq),30.59515,R,ugm-3,52.22738,R,ugm-3,99.13928,R,ugm-3
05-01-2019,21:00,27.054,R,ugm-3 (Ref.eq),17.71298,R,ugm-3,43.01118,R,ugm-3,70.17070,R,ugm-3
05-01-2019,22:00,29.952,R,ugm-3 (Ref.eq),10.11670,R,ugm-3,28.44393,R,ugm-3,43.95598,R,ugm-3
05-01-2019,23:00,23.189,R,ugm-3 (Ref.eq),9.31157,R,ugm-3,25.86540,R,ugm-3,40.14294,R,ugm-3
05-01-2019,24:00,24.155,R,ugm-3 (Ref.eq),7.28123,R,ugm-3,25.32437,R,ugm-3,36.48876,R,ugm-3
06-01-2019,01:00,24.155,R,ugm-3 (Ref.eq),4.38015,R,ugm-3,17.91951,R,ugm-3,24.63565,R,ugm-3
06-01-2019,02:00,23.189,R,ugm-3 (Ref.eq),3.17707,R,ugm-3,16.24988,R,ugm-3,21.12132,R,ugm-3
06-01-2019,03:00,21.256,R,ugm-3 (Ref.eq),3.29387,R,ugm-3,13.75733,R,ugm-3,18.80786,R,ugm-3
06-01-2019,04:00,23.189,R,ugm-3 (Ref.eq),1.71702,R,ugm-3,10.02947,R,ugm-3,12.66219,R,ugm-3
06-01-2019,05:00,21.256,R,ugm-3 (Ref.eq),3.11867,R,ugm-3,11.32400,R,ugm-3,16.10589,R,ugm-3
06-01-2019,06:00,25.121,R,ugm-3 (Ref.eq),2.55801,R,ugm-3,13.82604,R,ugm-3,17.74826,R,ugm-3
06-01-2019,07:00,26.087,R,ugm-3 (Ref.eq),9.11072,R,ugm-3,24.97065,R,ugm-3,38.94022,R,ugm-3
06-01-2019,08:00,23.189,R,ugm-3 (Ref.eq),11.14311,R,ugm-3,27.62917,R,ugm-3,44.71503,R,ugm-3
06-01-2019,09:00,23.189,R,ugm-3 (Ref.eq),12.36955,R,ugm-3,37.77509,R,ugm-3,56.74147,R,ugm-3
06-01-2019,10:00,27.054,R,ugm-3 (Ref.eq),36.33774,R,ugm-3,58.29564,R,ugm-3,114.01273,R,ugm-3
06-01-2019,11:00,27.054,R,ugm-3 (Ref.eq),45.09804,R,ugm-3,54.24081,R,ugm-3,123.39017,R,ugm-3
06-01-2019,12:00,33.817,R,ugm-3 (Ref.eq),23.86307,R,ugm-3,39.01278,R,ugm-3,75.60231,R,ugm-3
06-01-2019,13:00,34.783,R,ugm-3 (Ref.eq),21.55035,R,ugm-3,34.45298,R,ugm-3,67.49638,R,ugm-3
06-01-2019,14:00,25.121,R,ugm-3 (Ref.eq),22.53150,R,ugm-3,34.74988,R,ugm-3,69.29770,R,ugm-3
06-01-2019,15:00,17.392,R,ugm-3 (Ref.eq),20.53415,R,ugm-3,34.68663,R,ugm-3,66.17189,R,ugm-3
06-01-2019,16:00,25.121,R,ugm-3 (Ref.eq),32.79857,R,ugm-3,51.06009,R,ugm-3,101.35054,R,ugm-3
06-01-2019,17:00,26.087,R,ugm-3 (Ref.eq),44.85275,R,ugm-3,68.92148,R,ugm-3,137.69474,R,ugm-3
06-01-2019,18:00,23.189,R,ugm-3 (Ref.eq),50.28414,R,ugm-3,67.79874,R,ugm-3,144.90001,R,ugm-3
06-01-2019,19:00,32.851,R,ugm-3 (Ref.eq),62.68873,R,ugm-3,73.46726,R,ugm-3,169.58864,R,ugm-3
06-01-2019,20:00,38.648,R,ugm-3 (Ref.eq),40.19227,R,ugm-3,64.09400,R,ugm-3,125.72129,R,ugm-3
06-01-2019,21:00,45.411,R,ugm-3 (Ref.eq),36.54798,R,ugm-3,62.05272,R,ugm-3,118.09218,R,ugm-3
06-01-2019,22:00,44.445,R,ugm-3 (Ref.eq),32.51825,R,ugm-3,56.62897,R,ugm-3,106.48958,R,ugm-3
06-01-2019,23:00,43.479,R,ugm-3 (Ref.eq),33.35923,R,ugm-3,54.17392,R,ugm-3,105.32403,R,ugm-3
06-01-2019,24:00,38.648,R,ugm-3 (Ref.eq),38.58037,R,ugm-3,53.10865,R,ugm-3,112.26439,R,ugm-3
07-01-2019,01:00,20.290,R,ugm-3 (Ref.eq),9.96174,R,ugm-3,34.33427,R,ugm-3,49.60872,R,ugm-3
07-01-2019,02:00,22.223,R,ugm-3 (Ref.eq),3.36735,R,ugm-3,21.69053,R,ugm-3,26.85372,R,ugm-3
07-01-2019,03:00,21.256,R,ugm-3 (Ref.eq),3.15689,R,ugm-3,10.15872,R,ugm-3,14.99922,R,ugm-3
07-01-2019,04:00,18.358,R,ugm-3 (Ref.eq),2.56059,R,ugm-3,10.91404,R,ugm-3,14.84022,R,ugm-3
07-01-2019,05:00,17.392,R,ugm-3 (Ref.eq),8.41837,R,ugm-3,24.66956,R,ugm-3,37.57755,R,ugm-3
07-01-2019,06:00,19.324,R,ugm-3 (Ref.eq),19.25702,R,ugm-3,34.81592,R,ugm-3,64.34293,R,ugm-3
07-01-2019,07:00,19.324,R,ugm-3 (Ref.eq),48.01978,R,ugm-3,56.85859,R,ugm-3,130.48789,R,ugm-3
07-01-2019,08:00,20.290,R,ugm-3 (Ref.eq),56.64861,R,ugm-3,65.04022,R,ugm-3,151.90020,R,ugm-3
07-01-2019,09:00,26.087,R,ugm-3 (Ref.eq),79.86927,R,ugm-3,64.41620,R,ugm-3,186.88071,R,ugm-3
07-01-2019,10:00,21.256,R,ugm-3 (Ref.eq),57.35014,R,ugm-3,60.46650,R,ugm-3,148.40215,R,ugm-3
07-01-2019,11:00,24.155,R,ugm-3 (Ref.eq),53.84248,R,ugm-3,63.40679,R,ugm-3,145.96412,R,ugm-3
07-01-2019,12:00,14.493,R,ugm-3 (Ref.eq),39.81187,R,ugm-3,48.40257,R,ugm-3,109.44659,R,ugm-3
07-01-2019,13:00,15.459,R,ugm-3 (Ref.eq),42.58292,R,ugm-3,46.85673,R,ugm-3,112.14963,R,ugm-3
07-01-2019,14:00,20.290,R,ugm-3 (Ref.eq),42.68815,R,ugm-3,47.43740,R,ugm-3,112.89164,R,ugm-3
07-01-2019,15:00,11.594,R,ugm-3 (Ref.eq),23.71174,R,ugm-3,23.00337,R,ugm-3,59.36086,R,ugm-3
07-01-2019,16:00,20.290,R,ugm-3 (Ref.eq),21.85268,R,ugm-3,23.83985,R,ugm-3,57.34683,R,ugm-3
07-01-2019,17:00,15.459,R,ugm-3 (Ref.eq),38.44388,R,ugm-3,30.14783,R,ugm-3,89.09429,R,ugm-3
07-01-2019,18:00,6.763,R,ugm-3 (Ref.eq),36.09376,R,ugm-3,26.22520,R,ugm-3,81.56818,R,ugm-3
07-01-2019,19:00,14.493,R,ugm-3 (Ref.eq),17.74873,R,ugm-3,24.62042,R,ugm-3,51.83475,R,ugm-3
07-01-2019,20:00,19.324,R,ugm-3 (Ref.eq),12.62755,R,ugm-3,23.09164,R,ugm-3,42.45362,R,ugm-3
07-01-2019,21:00,16.425,R,ugm-3 (Ref.eq),10.10204,R,ugm-3,22.08796,R,ugm-3,37.57755,R,ugm-3
07-01-2019,22:00,17.392,R,ugm-3 (Ref.eq),5.92793,R,ugm-3,13.75396,R,ugm-3,22.84333,R,ugm-3
07-01-2019,23:00,17.392,R,ugm-3 (Ref.eq),4.20919,R,ugm-3,8.28022,R,ugm-3,14.73421,R,ugm-3
07-01-2019,24:00,13.527,R,ugm-3 (Ref.eq),4.13903,R,ugm-3,9.81881,R,ugm-3,16.16523,R,ugm-3
08-01-2019,01:00,18.358,R,ugm-3 (Ref.eq),2.34079,R,ugm-3,7.58073,R,ugm-3,11.16989,R,ugm-3
08-01-2019,02:00,15.459,R,ugm-3 (Ref.eq),1.45129,R,ugm-3,4.42010,R,ugm-3,6.64538,R,ugm-3
08-01-2019,03:00,15.459,R,ugm-3 (Ref.eq),2.77384,R,ugm-3,4.38937,R,ugm-3,8.64253,R,ugm-3
08-01-2019,04:00,16.425,R,ugm-3 (Ref.eq),1.86093,R,ugm-3,4.35756,R,ugm-3,7.21094,R,ugm-3
08-01-2019,05:00,13.527,R,ugm-3 (Ref.eq),2.91428,R,ugm-3,5.23445,R,ugm-3,9.70296,R,ugm-3
08-01-2019,06:00,19.324,R,ugm-3 (Ref.eq),7.47883,R,ugm-3,11.54402,R,ugm-3,23.01139,R,ugm-3
08-01-2019,07:00,,,,15.96419,R,ugm-3,24.58461,R,ugm-3,49.06270,R,ugm-3
08-01-2019,08:00,34.783,R,ugm-3 (Ref.eq),94.38068,R,ugm-3,81.79344,R,ugm-3,226.50847,R,ugm-3
08-01-2019,09:00,34.783,R,ugm-3 (Ref.eq),131.10769,R,ugm-3,92.39280,R,ugm-3,293.42178,R,ugm-3
08-01-2019,10:00,37.682,R,ugm-3 (Ref.eq),48.24370,R,ugm-3,53.65046,R,ugm-3,127.62310,R,ugm-3
08-01-2019,11:00,67.634,R,ugm-3 (Ref.eq),34.05851,R,ugm-3,45.86773,R,ugm-3,98.09004,R,ugm-3
08-01-2019,12:00,86.958,R,ugm-3 (Ref.eq),27.14147,R,ugm-3,37.01476,R,ugm-3,78.63110,R,ugm-3
08-01-2019,13:00,63.769,R,ugm-3 (Ref.eq),32.97004,R,ugm-3,41.49222,R,ugm-3,92.04558,R,ugm-3
08-01-2019,14:00,56.040,R,ugm-3 (Ref.eq),32.51358,R,ugm-3,43.72974,R,ugm-3,93.58320,R,ugm-3
08-01-2019,15:00,36.716,R,ugm-3 (Ref.eq),28.79173,R,ugm-3,36.28714,R,ugm-3,80.43384,R,ugm-3
08-01-2019,16:00,40.580,R,ugm-3 (Ref.eq),40.62442,R,ugm-3,49.90389,R,ugm-3,112.19380,R,ugm-3
08-01-2019,17:00,40.580,R,ugm-3 (Ref.eq),47.75213,R,ugm-3,51.85915,R,ugm-3,125.07806,R,ugm-3
08-01-2019,18:00,49.276,R,ugm-3 (Ref.eq),60.70841,R,ugm-3,70.27476,R,ugm-3,163.35969,R,ugm-3
08-01-2019,19:00,37.682,R,ugm-3 (Ref.eq),45.08363,R,ugm-3,57.96561,R,ugm-3,127.09288,R,ugm-3
08-01-2019,20:00,31.885,R,ugm-3 (Ref.eq),33.32116,R,ugm-3,44.45328,R,ugm-3,95.54500,R,ugm-3
08-01-2019,21:00,31.885,R,ugm-3 (Ref.eq),18.01239,R,ugm-3,35.37111,R,ugm-3,62.98971,R,ugm-3
08-01-2019,22:00,23.189,R,ugm-3 (Ref.eq),13.23717,R,ugm-3,27.31672,R,ugm-3,47.61344,R,ugm-3
08-01-2019,23:00,22.223,R,ugm-3 (Ref.eq),13.44784,R,ugm-3,33.25025,R,ugm-3,53.86999,R,ugm-3
08-01-2019,24:00,22.223,R,ugm-3 (Ref.eq),20.92667,R,ugm-3,52.00522,R,ugm-3,84.09233,R,ugm-3
09-01-2019,01:00,21.256,R,ugm-3 (Ref.eq),9.43398,R,ugm-3,27.40032,R,ugm-3,41.86556,R,ugm-3
09-01-2019,02:00,10.628,R,ugm-3 (Ref.eq),4.25523,R,ugm-3,17.89257,R,ugm-3,24.41717,R,ugm-3
09-01-2019,03:00,10.628,R,ugm-3 (Ref.eq),7.89088,R,ugm-3,12.93548,R,ugm-3,25.03465,R,ugm-3
09-01-2019,04:00,10.628,R,ugm-3 (Ref.eq),11.32779,R,ugm-3,16.98083,R,ugm-3,34.34987,R,ugm-3
09-01-2019,05:00,7.730,R,ugm-3 (Ref.eq),12.20456,R,ugm-3,17.64772,R,ugm-3,36.36111,R,ugm-3
09-01-2019,06:00,7.730,R,ugm-3 (Ref.eq),30.47632,R,ugm-3,43.35270,R,ugm-3,90.08240,R,ugm-3
09-01-2019,07:00,12.561,R,ugm-3 (Ref.eq),64.07391,R,ugm-3,69.32279,R,ugm-3,167.56808,R,ugm-3
09-01-2019,08:00,15.459,R,ugm-3 (Ref.eq),86.69443,R,ugm-3,87.77758,R,ugm-3,220.70717,R,ugm-3
09-01-2019,09:00,26.087,R,ugm-3 (Ref.eq),64.21420,R,ugm-3,77.94656,R,ugm-3,176.40696,R,ugm-3
09-01-2019,10:00,62.803,R,ugm-3 (Ref.eq),35.87718,R,ugm-3,45.44525,R,ugm-3,100.45617,R,ugm-3
09-01-2019,11:00,62.803,R,ugm-3 (Ref.eq),32.12463,R,ugm-3,39.87262,R,ugm-3,89.12971,R,ugm-3
09-01-2019,12:00,62.803,R,ugm-3 (Ref.eq),27.98631,R,ugm-3,46.27090,R,ugm-3,89.18264,R,ugm-3
09-01-2019,13:00,46.378,R,ugm-3 (Ref.eq),26.30292,R,ugm-3,36.94339,R,ugm-3,77.27397,R,ugm-3
09-01-2019,14:00,39.614,R,ugm-3 (Ref.eq),26.37306,R,ugm-3,36.51828,R,ugm-3,76.95641,R,ugm-3
09-01-2019,15:00,44.445,R,ugm-3 (Ref.eq),49.48456,R,ugm-3,49.29799,R,ugm-3,125.17325,R,ugm-3
09-01-2019,16:00,46.378,R,ugm-3 (Ref.eq),77.40073,R,ugm-3,80.06285,R,ugm-3,198.74231,R,ugm-3
09-01-2019,17:00,39.614,R,ugm-3 (Ref.eq),103.66858,R,ugm-3,88.10874,R,ugm-3,247.06501,R,ugm-3
09-01-2019,18:00,29.952,R,ugm-3 (Ref.eq),118.46835,R,ugm-3,99.55423,R,ugm-3,281.20317,R,ugm-3
09-01-2019,19:00,42.513,R,ugm-3 (Ref.eq),84.23949,R,ugm-3,88.10148,R,ugm-3,217.26689,R,ugm-3
09-01-2019,20:00,42.513,R,ugm-3 (Ref.eq),74.20931,R,ugm-3,85.75021,R,ugm-3,199.53622,R,ugm-3
09-01-2019,21:00,39.614,R,ugm-3 (Ref.eq),32.72083,R,ugm-3,61.82309,R,ugm-3,111.99434,R,ugm-3
09-01-2019,22:00,40.580,R,ugm-3 (Ref.eq),21.35797,R,ugm-3,51.03561,R,ugm-3,83.78404,R,ugm-3
09-01-2019,23:00,37.682,R,ugm-3 (Ref.eq),27.31997,R,ugm-3,53.74974,R,ugm-3,95.63978,R,ugm-3
09-01-2019,24:00,37.682,R,ugm-3 (Ref.eq),17.78077,R,ugm-3,43.87093,R,ugm-3,71.13440,R,ugm-3
10-01-2019,01:00,28.986,R,ugm-3 (Ref.eq),11.06925,R,ugm-3,42.78165,R,ugm-3,59.75425,R,ugm-3
10-01-2019,02:00,23.189,R,ugm-3 (Ref.eq),21.39120,R,ugm-3,42.15319,R,ugm-3,74.95258,R,ugm-3
10-01-2019,03:00,23.189,R,ugm-3 (Ref.eq),27.39288,R,ugm-3,50.98445,R,ugm-3,92.98628,R,ugm-3
10-01-2019,04:00,20.290,R,ugm-3 (Ref.eq),26.23692,R,ugm-3,45.20177,R,ugm-3,85.43115,R,ugm-3
10-01-2019,05:00,13.527,R,ugm-3 (Ref.eq),18.46042,R,ugm-3,37.52448,R,ugm-3,65.83006,R,ugm-3
10-01-2019,06:00,13.527,R,ugm-3 (Ref.eq),53.31453,R,ugm-3,57.83728,R,ugm-3,139.58509,R,ugm-3
10-01-2019,07:00,20.290,R,ugm-3 (Ref.eq),102.53064,R,ugm-3,66.80095,R,ugm-3,224.01241,R,ugm-3
10-01-2019,08:00,31.885,R,ugm-3 (Ref.eq),156.65085,R,ugm-3,73.73975,R,ugm-3,313.93437,R,ugm-3
10-01-2019,09:00,39.614,R,ugm-3 (Ref.eq),269.05974,R,ugm-3,106.74417,R,ugm-3,519.29669,R,ugm-3
10-01-2019,10:00,39.614,R,ugm-3 (Ref.eq),118.92434,R,ugm-3,71.25085,R,ugm-3,253.59895,R,ugm-3
10-01-2019,11:00,41.547,R,ugm-3 (Ref.eq),133.88183,R,ugm-3,74.31023,R,ugm-3,279.59285,R,ugm-3
10-01-2019,12:00,41.547,R,ugm-3 (Ref.eq),106.83924,R,ugm-3,73.66696,R,ugm-3,237.48485,R,ugm-3
10-01-2019,13:00,71.499,R,ugm-3 (Ref.eq),104.24708,R,ugm-3,69.18826,R,ugm-3,229.03155,R,ugm-3
10-01-2019,14:00,71.499,R,ugm-3 (Ref.eq),98.85257,R,ugm-3,65.99494,R,ugm-3,217.56677,R,ugm-3
10-01-2019,15:00,41.547,R,ugm-3 (Ref.eq),124.84428,R,ugm-3,75.01217,R,ugm-3,266.43740,R,ugm-3
10-01-2019,16:00,41.547,R,ugm-3 (Ref.eq),163.30641,R,ugm-3,74.52399,R,ugm-3,324.92366,R,ugm-3
10-01-2019,17:00,47.344,R,ugm-3 (Ref.eq),119.87013,R,ugm-3,87.44692,R,ugm-3,271.24521,R,ugm-3
10-01-2019,18:00,47.344,R,ugm-3 (Ref.eq),104.98269,R,ugm-3,80.10629,R,ugm-3,241.07750,R,ugm-3
10-01-2019,19:00,25.121,R,ugm-3 (Ref.eq),82.73911,R,ugm-3,78.28612,R,ugm-3,205.15099,R,ugm-3
10-01-2019,20:00,25.121,R,ugm-3 (Ref.eq),43.47131,R,ugm-3,65.53337,R,ugm-3,132.18845,R,ugm-3
10-01-2019,21:00,20.290,R,ugm-3 (Ref.eq),28.19855,R,ugm-3,60.36856,R,ugm-3,103.60574,R,ugm-3
10-01-2019,22:00,20.290,R,ugm-3 (Ref.eq),23.18937,R,ugm-3,55.68625,R,ugm-3,91.24279,R,ugm-3
10-01-2019,23:00,21.256,R,ugm-3 (Ref.eq),20.63223,R,ugm-3,56.59565,R,ugm-3,88.23130,R,ugm-3
10-01-2019,24:00,17.392,R,ugm-3 (Ref.eq),12.75065,R,ugm-3,44.80001,R,ugm-3,64.35074,R,ugm-3
11-01-2019,01:00,17.392,R,ugm-3 (Ref.eq),6.26284,R,ugm-3,29.84577,R,ugm-3,39.44866,R,ugm-3
11-01-2019,02:00,16.425,R,ugm-3 (Ref.eq),8.39711,R,ugm-3,25.23722,R,ugm-3,38.11261,R,ugm-3
11-01-2019,03:00,16.425,R,ugm-3 (Ref.eq),8.39711,R,ugm-3,26.52053,R,ugm-3,39.39592,R,ugm-3
11-01-2019,04:00,12.561,R,ugm-3 (Ref.eq),15.14979,R,ugm-3,32.56836,R,ugm-3,55.79770,R,ugm-3
11-01-2019,05:00,12.561,R,ugm-3 (Ref.eq),36.38748,R,ugm-3,52.32129,R,ugm-3,108.11464,R,ugm-3
11-01-2019,06:00,11.594,R,ugm-3 (Ref.eq),45.06449,R,ugm-3,57.00067,R,ugm-3,126.09859,R,ugm-3
11-01-2019,07:00,26.087,R,ugm-3 (Ref.eq),108.46267,R,ugm-3,70.43759,R,ugm-3,236.74470,R,ugm-3
11-01-2019,08:00,26.087,R,ugm-3 (Ref.eq),126.44648,R,ugm-3,87.00521,R,ugm-3,280.88712,R,ugm-3
11-01-2019,09:00,35.749,R,ugm-3 (Ref.eq),182.77710,R,ugm-3,90.23611,R,ugm-3,370.49042,R,ugm-3
11-01-2019,10:00,31.885,R,ugm-3 (Ref.eq),176.72418,R,ugm-3,86.91254,R,ugm-3,357.88584,R,ugm-3
11-01-2019,11:00,28.986,R,ugm-3 (Ref.eq),111.82152,R,ugm-3,75.94068,R,ugm-3,247.39795,R,ugm-3
11-01-2019,12:00,28.986,R,ugm-3 (Ref.eq),60.63413,R,ugm-3,65.66742,R,ugm-3,158.63846,R,ugm-3
11-01-2019,13:00,45.411,R,ugm-3 (Ref.eq),53.18170,R,ugm-3,50.09204,R,ugm-3,131.63617,R,ugm-3
11-01-2019,14:00,104.350,R,ugm-3 (Ref.eq),49.78787,R,ugm-3,62.04641,R,ugm-3,138.38674,R,ugm-3
11-01-2019,15:00,64.735,R,ugm-3 (Ref.eq),47.26873,R,ugm-3,62.11183,R,ugm-3,134.58955,R,ugm-3
11-01-2019,16:00,52.175,R,ugm-3 (Ref.eq),75.99385,R,ugm-3,74.86701,R,ugm-3,191.38929,R,ugm-3